FW6987 Weather Reports


Display with metric or nautical units.
time (UTC)temp
F
wind
direction
speed
MPH
gust
MPH
rain 1hr
in
rain 24hr
in
rain mn
in
humidity
%
barometer
mb
20260509104548 43 0 0.0 1.0 0.00 0.07 0.07 89 1003.4
20260509103049 43 59 0.0 6.0 0.00 0.07 0.07 89 1003.3
20260509101554 43 79 3.0 9.0 0.01 0.07 0.07 89 1003.1
20260509100056 43 45 1.0 3.0 0.01 0.07 0.07 90 1003.3
20260509094553 43 0 0.0 0.0 0.02 0.07 0.07 89 1003.4
20260509093052 44 0 0.0 0.0 0.02 0.07 0.07 88 1003.5
20260509091552 44 0 0.0 0.0 0.01 0.06 0.06 88 1003.5
20260509090055 44 0 0.0 3.0 0.02 0.06 0.06 87 1003.5
20260509084556 44 290 3.0 6.0 0.01 0.05 0.05 85 1003.7
20260509083055 44 0 1.0 9.0 0.02 0.05 0.05 85 1003.9
20260509081552 44 275 6.0 12.0 0.03 0.05 0.05 84 1003.4
20260509080058 44 308 6.0 10.0 0.03 0.04 0.04 84 1003.1
20260509074551 45 317 3.0 6.0 0.04 0.04 0.04 82 1003.3
20260509073056 46 25 1.0 4.0 0.03 0.03 0.03 81 1003.3
20260509071556 47 0 0.0 0.0 0.02 0.02 0.02 78 1003.2
20260509070050 48 0 0.0 1.0 0.01 0.01 0.01 73 1003.4
20260509064548 48 0 0.0 3.0 0.00 0.00 0.00 66 1003.3
20260509063048 48 351 1.0 4.0 0.00 0.00 0.00 64 1003.1
20260509061552 48 286 0.0 0.0 0.00 0.00 0.00 70 1003.4
20260509060105 48 0 0.0 0.0 0.00 0.00 0.00 69 1003.2
20260509054603 49 0 0.0 0.0 0.00 0.00 0.00 68 1003.5
20260509053049 49 0 0.0 0.0 0.00 0.00 0.00 64 1003.5
20260509051551 49 0 0.0 0.0 0.00 0.00 0.00 64 1003.6
20260509050059 49 0 0.0 0.0 0.00 0.00 0.00 67 1003.6
20260509044552 49 0 0.0 1.0 0.00 0.00 0.00 66 1003.7
20260509043049 49 0 0.0 1.0 0.00 0.00 0.00 68 1003.8
20260509041549 50 0 0.0 1.0 0.00 0.00 0.00 66 1003.7
20260509040055 50 0 0.0 0.0 0.00 0.00 0.00 65 1003.7
20260509034600 50 0 0.0 1.0 0.00 0.00 0.00 64 1003.6
20260509033051 50 0 0.0 0.0 0.00 0.00 0.00 63 1003.6
20260509031600 50 0 0.0 0.0 0.00 0.00 0.00 66 1003.3
20260509030053 50 0 0.0 2.0 0.00 0.00 0.00 65 1003.3
20260509024554 50 0 0.0 2.0 0.00 0.00 0.00 63 1003.4
20260509023058 50 0 0.0 0.0 0.00 0.00 0.00 62 1003.3
20260509021549 50 0 0.0 0.0 0.00 0.00 0.00 59 1003.4
20260509020056 49 0 0.0 0.0 0.00 0.00 0.00 60 1003.5
20260509014550 50 0 0.0 0.0 0.00 0.00 0.00 58 1003.3
20260509013113 50 0 0.0 0.0 0.00 0.00 0.00 56 1003.1
20260509011555 51 0 0.0 0.0 0.00 0.00 0.00 54 1002.7
20260509010053 51 0 0.0 3.0 0.00 0.00 0.00 54 1002.8
20260509004553 51 0 0.0 2.0 0.00 0.00 0.00 55 1002.4
20260509003103 51 285 0.0 3.0 0.00 0.00 0.00 53 1002.1
20260509001557 52 279 0.0 2.0 0.00 0.00 0.00 53 1001.9
20260509000057 53 257 0.0 2.0 0.00 0.00 0.00 50 1002.0
20260508234556 53 0 0.0 2.0 0.00 0.00 0.00 53 1002.0
20260508233056 54 0 0.0 4.0 0.00 0.00 0.00 52 1001.9
20260508231559 55 0 0.0 2.0 0.00 0.00 0.00 51 1001.7
20260508230100 56 0 0.0 2.0 0.00 0.00 0.00 48 1001.7
20260508224604 56 0 0.0 2.0 0.00 0.00 0.00 47 1001.4
20260508223049 57 0 0.0 2.0 0.00 0.00 0.00 41 1001.4
20260508221557 58 33 0.0 4.0 0.00 0.00 0.00 44 1001.5
20260508220053 57 0 0.0 4.0 0.00 0.00 0.00 41 1001.4
20260508214553 58 146 1.0 3.0 0.00 0.00 0.00 42 1001.3
20260508213114 57 0 3.0 9.0 0.00 0.00 0.00 39 1001.2
20260508211552 57 95 2.0 6.0 0.00 0.00 0.00 40 1001.2
20260508210056 58 127 4.0 9.0 0.00 0.00 0.00 40 1001.0
20260508204557 58 0 0.0 7.0 0.00 0.00 0.00 41 1001.4
20260508203109 58 0 2.0 10.0 0.00 0.00 0.00 39 1001.2
20260508201554 59 0 1.0 7.0 0.00 0.00 0.00 42 1001.2
20260508200054 59 0 2.0 9.0 0.00 0.00 0.00 41 1001.2
20260508194552 58 135 1.0 9.0 0.00 0.00 0.00 43 1001.3
20260508193125 58 151 2.0 7.0 0.00 0.00 0.00 44 1001.2
20260508191553 57 138 1.0 7.0 0.00 0.00 0.00 45 1001.4
20260508190058 56 0 1.0 6.0 0.00 0.00 0.00 51 1001.3
20260508184629 56 147 1.0 5.0 0.00 0.00 0.00 52 1001.3
20260508183049 56 150 1.0 5.0 0.00 0.00 0.00 53 1001.5
20260508181559 56 170 1.0 6.0 0.00 0.00 0.00 53 1001.4
20260508180100 56 190 2.0 6.0 0.00 0.00 0.00 55 1001.5
20260508174606 56 141 2.0 6.0 0.00 0.00 0.00 52 1001.5
20260508173105 57 181 1.0 5.0 0.00 0.00 0.00 54 1001.3
20260508171623 55 40 1.0 6.0 0.00 0.00 0.00 58 1001.5
20260508170059 55 143 3.0 6.0 0.00 0.00 0.00 57 1001.7
20260508164559 55 191 2.0 5.0 0.00 0.00 0.00 56 1001.9
20260508163056 54 216 2.0 13.0 0.00 0.00 0.00 54 1002.0
20260508161601 52 0 0.0 0.0 0.00 0.00 0.00 57 1002.1
20260508160059 52 0 0.0 0.0 0.00 0.00 0.00 58 1002.3
20260508154554 52 0 0.0 1.0 0.00 0.00 0.00 56 1002.3
20260508153053 52 0 0.0 0.0 0.00 0.00 0.00 56 1001.9
20260508151558 53 0 0.0 0.0 0.00 0.00 0.00 58 1001.8
20260508150059 53 0 0.0 0.0 0.00 0.00 0.00 58 1001.9
20260508144552 53 0 0.0 0.0 0.00 0.00 0.00 58 1001.8
20260508143056 53 0 0.0 0.0 0.00 0.00 0.00 53 1002.1
20260508141551 52 0 0.0 1.0 0.00 0.00 0.00 55 1002.2
20260508140050 51 0 0.0 0.0 0.00 0.00 0.00 56 1002.3
20260508134619 52 0 0.0 0.0 0.00 0.00 0.00 56 1002.3
20260508133109 51 0 0.0 0.0 0.00 0.00 0.00 59 1002.2
20260508131550 50 0 0.0 0.0 0.00 0.00 0.00 62 1002.2
20260508130056 49 0 0.0 0.0 0.00 0.00 0.00 63 1002.3
20260508124552 48 0 0.0 0.0 0.00 0.00 0.00 66 1002.3
20260508123103 47 0 0.0 6.0 0.00 0.00 0.00 69 1002.4
20260508121559 47 127 2.0 6.0 0.00 0.00 0.00 72 1002.4
20260508120056 46 135 1.0 5.0 0.00 0.00 0.00 74 1002.6
20260508114559 45 116 1.0 7.0 0.00 0.00 0.00 76 1002.6
20260508113056 44 220 2.0 8.0 0.00 0.00 0.00 78 1002.6
20260508111559 43 189 1.0 6.0 0.00 0.00 0.00 84 1002.7
20260508110051 41 160 1.0 3.0 0.00 0.00 0.00 86 1002.4